[[{"header":{"parameterUnit":"m.s-1","parameterCategory":1,"la1":30.2991,"la2":30.254,"lo1":-89.0895,"lo2":-89.0444,"dy":0.0017,"dx":0.0017,"nx":28,"ny":28,"refTime":"2024-12-07T09:00:00:Z","depth":0,"parameterNumber":2,"parameterNumberName":"U-component_of_WINDS"},"data":[0,0,0,0,0,0,0,0,0,0,0,0,0,0,0,0,0,0,0,0,0,0,0,0,0,0,0,0,0,0,0,0,0,0,0,0,0,0,0,0,0,0,0,0,0,0,0,0,0,0,0,0,0,0,0,0,0,0,-3.051,-3.051,0,-3.0511,-3.0511,-3.0511,-3.0405,-3.0402,-3.0399,-3.0397,-3.0398,-3.0401,-3.0404,0,0,0,0,0,0,0,0,0,0,0,0,0,-3.0415,-3.0417,-3.051,-3.051,-3.051,-3.0511,-3.0511,-3.0511,-3.0405,-3.0402,-3.0398,-3.0395,-3.0398,-3.0401,-3.0404,0,0,0,0,0,0,0,0,0,0,0,0,0,-3.044,-3.0418,-3.051,-3.0457,-3.0452,-3.0511,-3.0511,-3.0511,-3.0406,-3.0402,-3.0398,-3.0394,-3.0397,-3.04,-3.0404,-3.0513,0,0,-3.0417,-3.0418,0,0,0,0,0,0,0,0,-3.0439,-3.0444,-3.0465,-3.0461,-3.0456,-3.0453,-3.0478,-3.0512,-3.0407,-3.0424,-3.0396,-3.0392,-3.042,-3.0422,-3.0431,-3.0514,-3.0514,-3.0417,-3.0419,-3.0421,-3.0422,0,0,0,0,0,0,0,-3.0437,-3.0443,-3.051,-3.0465,-3.046,-3.0433,-3.0432,-3.0484,-3.0446,-3.0422,-3.0414,-3.0416,-3.0417,-3.0428,-3.0431,-3.0514,-3.0417,-3.042,-3.0423,-3.0424,-3.0684,-3.0688,0,0,0,0,0,0,-3.0443,-3.0442,-3.051,-3.051,-3.0437,-3.0438,-3.0437,-3.0458,-3.0445,-3.0439,-3.0419,-3.0411,-3.0423,-3.0426,-3.043,-3.0556,-3.0421,-3.0425,-3.0427,-3.0679,-3.0685,-3.069,0,0,0,0,0,0,-3.0441,-3.045,-3.051,-3.0474,-3.048,-3.0444,-3.0469,-3.0461,-3.0471,-3.0443,-3.0435,-3.0438,-3.042,-3.0425,-3.0493,-3.0555,-3.0427,-3.043,-3.0674,-3.0681,-3.0687,-3.081,0,0,0,0,0,0,-3.0439,-3.045,-3.0491,-3.0476,-3.0482,-3.0574,-3.0473,-3.0464,-3.0479,-3.0468,-3.0458,-3.0452,-3.0417,-3.0488,-3.0497,-3.0558,-3.0433,-3.0668,-3.0677,-3.0685,-3.08,-3.082,-3.0837,0,0,0,0,0,-3.0436,-3.0526,-3.0494,-3.0503,-3.0533,-3.0577,-3.0581,-3.0538,-3.0484,-3.0525,-3.0506,-3.0453,-3.0547,-3.0496,-3.0505,-3.0568,-3.0664,-3.0675,-3.0684,-3.0792,-3.0816,-3.0836,0,0,0,0,0,0,-3.055,-3.0523,-3.0487,-3.0575,-3.0579,-3.0559,-3.061,-3.0565,-3.0585,-3.0574,-3.052,-3.0518,-3.0595,-3.0588,-3.0532,-3.0672,-3.0596,-3.0608,-3.0674,-3.0697,-3.0715,-3.0715,-3.0437,0,0,0,0,0,-3.0586,-3.0624,-3.0598,-3.0678,-3.0682,-3.0646,-3.0663,-3.063,-3.0632,-3.0633,-3.062,-3.0624,-3.0654,-3.0675,-3.0701,-3.0798,-3.0794,-3.0846,-3.0865,-3.088,-3.0891,-3.0941,-3.0964,-3.0723,-3.0723,-3.0722,0,0,-3.0659,-3.0649,-3.0677,-3.0701,-3.07,-3.074,-3.0648,-3.0695,-3.0724,-3.064,-3.0704,-3.0694,-3.0695,-3.0778,-3.0814,-3.0775,-3.0957,-3.0893,-3.0905,-3.0908,-3.0954,-3.0977,-3.0997,-3.073,-3.0728,-3.0727,0,0,-3.0814,-3.0811,-3.0876,-3.0877,-3.0877,-3.0852,-3.0868,-3.0854,-3.0844,-3.0907,-3.0845,-3.0879,-3.0932,-3.0935,-3.0943,-3.1098,-3.1049,-3.1108,-3.1204,-3.1253,-3.1272,-3.1289,-3.1343,-3.1363,-3.112,-3.112,-3.112,0,-3.0906,-3.0964,-3.0916,-3.0966,-3.0978,-3.0904,-3.097,-3.0973,-3.0982,-3.0991,-3.0947,-3.1012,-3.1007,-3.109,-3.1127,-3.1137,-3.1153,-3.1109,-3.1273,-3.1289,-3.1304,-3.1355,-3.1376,-3.1127,-3.1126,-3.1125,-3.1125,0,-3.1076,-3.1117,-3.117,-3.1179,-3.1197,-3.1256,-3.1216,-3.124,-3.1205,-3.1185,-3.1249,-3.1241,-3.1264,-3.1281,-3.1247,-3.1358,-3.1334,-3.1283,-3.1204,-3.1335,-3.1382,-3.1401,-3.1137,-3.1135,-3.1133,-3.1131,0,0,-3.1303,-3.1284,-3.1304,-3.1307,-3.1301,-3.1332,-3.1386,-3.1408,-3.1429,-3.1437,-3.1481,-3.1527,-3.1479,-3.1489,-3.1455,-3.1499,-3.162,-3.1442,-3.1441,-3.1475,-3.1741,-3.1779,-3.1803,-3.1588,-3.1592,-3.1594,-3.1741,0,-3.1452,-3.1544,-3.1501,-3.1597,-3.1634,-3.1563,-3.161,-3.1612,-3.1594,-3.1623,-3.1603,-3.1636,-3.1571,-3.1576,-3.1616,-3.1597,-3.1673,-3.1586,-3.1628,-3.163,-3.1629,-3.1827,-3.1868,-3.2006,-3.1759,-3.1762,-3.1764,0,-3.1639,-3.1654,-3.1753,-3.1739,-3.1753,-3.1796,-3.1811,-3.184,-3.1839,-3.1823,-3.1834,-3.179,-3.1841,-3.1764,-3.1835,-3.1776,-3.1791,-3.1784,-3.1788,-3.179,-3.1705,-3.1834,-3.205,-3.207,-3.1793,-3.1791,-3.1788,0,-3.1793,-3.1839,-3.1903,-3.1908,-3.1893,-3.1925,-3.192,-3.1915,-3.1931,-3.1945,-3.1954,-3.1974,-3.1986,-3.2002,-3.1964,-3.1912,-3.204,-3.1959,-3.2028,-3.2029,-3.2057,-3.2056,-3.2278,-3.2068,-3.2068,-3.2068,-3.2067,0,-3.1964,-3.2027,-3.1972,-3.2013,-3.2081,-3.2032,-3.2101,-3.2089,-3.2085,-3.2121,-3.2062,-3.2097,-3.2045,-3.2075,-3.2046,-3.2108,-3.2114,-3.2102,-3.2093,-3.2107,-3.2109,-3.2116,-3.2105,-3.2073,-3.2072,-3.2071,-3.207,0,-3.2148,-3.2114,-3.218,-3.216,-3.2157,-3.2208,-3.2191,-3.2227,-3.2204,-3.2251,-3.2259,-3.2225,-3.2257,-3.2221,-3.225,-3.223,-3.2314,-3.2292,-3.2315,-3.2308,-3.2378,-3.2372,-3.2611,-3.264,-3.2413,-3.2415,-3.2417,0,-3.2259,-3.2306,-3.2291,-3.231,-3.2309,-3.2342,-3.2356,-3.231,-3.2328,-3.233,-3.2366,-3.2393,-3.2412,-3.2466,-3.2444,-3.2466,-3.2443,-3.2526,-3.2446,-3.2458,-3.2444,-3.2441,-3.2445,-3.2542,-3.2545,-3.2547,-3.2549,0,-3.246,-3.244,-3.2464,-3.2481,-3.2501,-3.2513,-3.252,-3.254,-3.2491,-3.2514,-3.2546,-3.2561,-3.259,-3.2617,-3.2633,-3.2628,-3.2581,-3.2574,-3.2591,-3.2605,-3.2616,-3.261,-3.2358,-3.2569,-3.2567,-3.2565,-3.2564,-3.2563,-3.261,-3.2648,-3.2642,-3.2671,-3.2671,-3.2679,-3.2711,-3.2693,-3.2718,-3.2738,-3.2709,-3.2748,-3.2745,-3.2761,-3.2762,-3.2792,-3.2756,-3.2781,-3.2787,-3.2794,-3.2804,-3.2612,-3.2795,-3.2794,-3.2793,-3.2793,-3.2792,0,-3.2806,-3.2799,-3.2825,-3.2837,-3.2859,-3.2811,-3.2817,-3.2838,-3.2874,-3.2875,-3.2894,-3.293,-3.2956,-3.2936,-3.2958,-3.2986,-3.2964,-3.2993,-3.299,-3.2989,-3.2835,-3.2818,-3.301,-3.3009,-3.3009,-3.3009,-3.3009,-3.3009,-3.2911,-3.2972,-3.2952,-3.3012,-3.3004,-3.3042,-3.3049,-3.3056,-3.3056,-3.3099,-3.312,-3.3106,-3.3098,-3.3119,-3.314,-3.3133,-3.3144,-3.318,-3.3166,-3.3022,-3.3,-3.298,-3.2964,-3.3183,-3.3183,-3.3318,-3.3319,-3.332]},{"header":{"parameterUnit":"m.s-1","parameterCategory":1,"la1":30.2991,"la2":30.254,"lo1":-89.0895,"lo2":-89.0444,"dy":0.0017,"dx":0.0017,"nx":28,"ny":28,"refTime":"2024-12-07T09:00:00:Z","depth":0,"parameterNumber":3,"parameterNumberName":"V-component_of_WINDS"},"data":[0,0,0,0,0,0,0,0,0,0,0,0,0,0,0,0,0,0,0,0,0,0,0,0,0,0,0,0,0,0,0,0,0,0,0,0,0,0,0,0,0,0,0,0,0,0,0,0,0,0,0,0,0,0,0,0,0,0,0.1926,0.1925,0,0.1876,0.1875,0.1875,0.1834,0.1833,0.1833,0.1833,0.1777,0.1776,0.1775,0,0,0,0,0,0,0,0,0,0,0,0,0,0.1983,0.1983,0.1926,0.1925,0.1925,0.1876,0.1875,0.1874,0.1834,0.1833,0.1833,0.1833,0.1778,0.1776,0.1775,0,0,0,0,0,0,0,0,0,0,0,0,0,0.1948,0.1982,0.1926,0.1899,0.1896,0.1876,0.1875,0.1874,0.1834,0.1833,0.1833,0.1832,0.1778,0.1776,0.1775,0.1777,0,0,0.177,0.1769,0,0,0,0,0,0,0,0,0.195,0.1946,0.1903,0.1901,0.1897,0.1861,0.1875,0.1841,0.1834,0.1857,0.1833,0.1832,0.1805,0.1801,0.1793,0.1774,0.1772,0.177,0.1769,0.1768,0.1767,0,0,0,0,0,0,0,0.1953,0.1948,0.1906,0.1903,0.1899,0.1888,0.1882,0.1868,0.1835,0.1855,0.1852,0.1847,0.1803,0.1795,0.1791,0.1771,0.177,0.1768,0.1767,0.1767,0.1752,0.1752,0,0,0,0,0,0,0.196,0.195,0.1908,0.1904,0.1923,0.1887,0.1881,0.1873,0.1835,0.1829,0.1848,0.1845,0.1798,0.1793,0.1789,0.1789,0.1768,0.1766,0.1765,0.1751,0.1752,0.1753,0,0,0,0,0,0,0.1961,0.1957,0.191,0.1927,0.192,0.1887,0.1878,0.1872,0.1864,0.183,0.1823,0.1845,0.1797,0.1792,0.1781,0.1787,0.1766,0.1764,0.1751,0.1751,0.1752,0.179,0,0,0,0,0,0,0.1963,0.1957,0.1958,0.1927,0.1919,0.1903,0.1879,0.1872,0.1861,0.1858,0.1825,0.1819,0.1796,0.1783,0.1779,0.1784,0.1763,0.175,0.1751,0.1752,0.1788,0.1792,0.1795,0,0,0,0,0,0.1965,0.197,0.1959,0.1954,0.192,0.1903,0.1899,0.1873,0.1862,0.1862,0.1841,0.182,0.1787,0.1783,0.1777,0.1782,0.1749,0.1751,0.1752,0.1786,0.1791,0.1795,0,0,0,0,0,0,0.2001,0.1965,0.1952,0.1947,0.1929,0.1897,0.1896,0.1879,0.1862,0.1859,0.1827,0.182,0.1813,0.1796,0.1792,0.1782,0.1766,0.1766,0.1793,0.1798,0.1801,0.1805,0.1761,0,0,0,0,0,0.2009,0.2,0.1968,0.1966,0.1958,0.1929,0.1921,0.1903,0.1882,0.1873,0.1851,0.183,0.1815,0.1805,0.179,0.1786,0.1778,0.1786,0.179,0.1793,0.1794,0.179,0.1794,0.1757,0.1757,0.1757,0,0,0.2024,0.2003,0.1999,0.1973,0.1957,0.1947,0.1923,0.1913,0.1905,0.1871,0.186,0.1843,0.1818,0.181,0.1806,0.1796,0.1802,0.1795,0.1798,0.1796,0.1792,0.1796,0.1799,0.1758,0.1758,0.1758,0,0,0.2046,0.203,0.2027,0.2011,0.1988,0.1968,0.1968,0.1938,0.1926,0.1915,0.189,0.1879,0.1854,0.1837,0.1825,0.1843,0.1823,0.1839,0.1858,0.1855,0.1858,0.186,0.1866,0.1869,0.1839,0.1839,0.1839,0,0.2067,0.2052,0.2027,0.2019,0.2009,0.198,0.1976,0.1962,0.1934,0.1927,0.1917,0.1885,0.1866,0.1855,0.1859,0.1851,0.1848,0.1842,0.186,0.1862,0.1864,0.1869,0.1871,0.1841,0.1841,0.1841,0.1841,0,0.208,0.207,0.207,0.2046,0.2035,0.2029,0.2002,0.1994,0.1978,0.1959,0.1948,0.1925,0.1904,0.19,0.1883,0.1886,0.1881,0.1866,0.1848,0.187,0.1874,0.1876,0.1844,0.1843,0.1843,0.1842,0,0,0.2122,0.2085,0.2085,0.2074,0.2046,0.2037,0.203,0.2011,0.2005,0.1987,0.198,0.196,0.1946,0.1933,0.1914,0.1912,0.1927,0.1897,0.1896,0.1903,0.1929,0.194,0.1943,0.1914,0.1915,0.1915,0.1931,0,0.2139,0.2126,0.2104,0.2098,0.2088,0.2061,0.2055,0.2037,0.202,0.2009,0.1989,0.1976,0.1959,0.1951,0.1947,0.1926,0.1931,0.1924,0.1906,0.1906,0.1913,0.1945,0.1956,0.1972,0.1932,0.1933,0.1933,0,0.2157,0.2143,0.2136,0.211,0.2105,0.21,0.2082,0.2071,0.205,0.2038,0.2024,0.2004,0.1994,0.1979,0.1965,0.196,0.1952,0.194,0.194,0.1937,0.192,0.1942,0.1977,0.1979,0.1935,0.1935,0.1935,0,0.2189,0.2167,0.216,0.2152,0.2121,0.2118,0.2105,0.2083,0.2074,0.2057,0.205,0.2032,0.2022,0.2008,0.1984,0.1975,0.1972,0.1955,0.1961,0.1962,0.1961,0.1961,0.1994,0.1956,0.1956,0.1956,0.1956,0,0.221,0.2207,0.2174,0.217,0.2166,0.214,0.2136,0.212,0.2102,0.2093,0.2069,0.2061,0.2029,0.2017,0.1998,0.1989,0.1985,0.1974,0.1968,0.1976,0.1977,0.1969,0.1967,0.1957,0.1957,0.1957,0.1956,0,0.2244,0.2222,0.2213,0.2185,0.2178,0.2176,0.2152,0.2147,0.2129,0.2119,0.2115,0.2086,0.2071,0.2046,0.2023,0.201,0.2005,0.1996,0.2013,0.2009,0.2017,0.2016,0.2045,0.2048,0.2009,0.201,0.201,0,0.2259,0.2256,0.2229,0.2222,0.2211,0.22,0.2191,0.2165,0.2156,0.2133,0.213,0.2114,0.2099,0.2077,0.2053,0.2036,0.2026,0.2038,0.2023,0.2031,0.2026,0.2026,0.2026,0.2041,0.2041,0.2042,0.2042,0,0.2287,0.2277,0.2265,0.225,0.224,0.2226,0.2211,0.2207,0.2177,0.2169,0.2154,0.2143,0.2121,0.2105,0.2085,0.207,0.2051,0.2047,0.2048,0.2055,0.2064,0.2059,0.2021,0.2046,0.2046,0.2046,0.2045,0.2045,0.2312,0.2308,0.2289,0.2277,0.2263,0.225,0.2244,0.2226,0.2214,0.2195,0.2181,0.2167,0.2146,0.2117,0.2104,0.2092,0.2083,0.2084,0.2084,0.2085,0.2087,0.2067,0.2088,0.2088,0.2088,0.2088,0.2088,0,0.2339,0.2326,0.2315,0.2295,0.2286,0.2271,0.2253,0.2246,0.2235,0.2218,0.2205,0.2189,0.2173,0.2149,0.2132,0.2127,0.2118,0.2123,0.2123,0.212,0.2096,0.2098,0.2131,0.2131,0.2131,0.2131,0.2131,0.2131,0.2352,0.2345,0.2333,0.2319,0.2306,0.2294,0.2285,0.2273,0.2259,0.2242,0.223,0.2215,0.2195,0.2176,0.2161,0.2154,0.2149,0.2157,0.2147,0.2125,0.2121,0.2118,0.2119,0.2156,0.2156,0.2172,0.2172,0.2172]}]]